Regional Weather Roundup
Issued by NWS Jackson, KY

Home | Current Version | Previous Version | Graphics & Text | Print | Product List | Glossary On
Versions: 1 2 3 4 5 6 7 8 9 10 11 12 13 14 15 16 17 18 19 20 21 22 23 24 25 26 27 28 29 30 31 32 33 34 35 36 37 38 39 40 41 42 43 44 45 46 47 48 49 50
000
ASUS43 KJKL 181405
RWRJKL

EAST KENTUCKY HOURLY WEATHER ROUNDUP
NATIONAL WEATHER SERVICE JACKSON KY
900 AM EST THU DEC 18 2014

NOTE: "FAIR" INDICATES FEW OR NO CLOUDS BELOW 12,000 FEET WITH
NO SIGNIFICANT WEATHER AND/OR OBSTRUCTIONS TO VISIBILITY.

* THESE REPORTS ARE NOT UNDER NWS QUALITY CONTROL AND MAY NOT
  REPORT WEATHER SUCH AS PRECIPITATION AND FOG.

KYZ079-080-083-085-087-088-110-112-115-119-120-181500
...EASTERN KENTUCKY...

CITY           SKY/WX    TMP DP  RH WIND       PRES   REMARKS
JACKSON        CLOUDY    28  22  78 CALM      30.23S
LONDON         CLOUDY    29  24  82 NE5       30.23F WCI  24
SOMERSET*      CLOUDY    28  28 100 E3        30.26S
MONTICELLO*    MOSUNNY   31  28  88 NE5       30.26S FOG     WCI  26
MIDDLESBORO*   CLOUDY    32  29  91 CALM      30.24S
HARLAN APT*    CLOUDY    32  30  93 NE3       30.21S
BLACK MTN*       N/A     28  18  64 CALM        N/A
PIKEVILLE APT* CLOUDY    28  23  80 CALM      30.23R
BIG SANDY*     CLOUDY    30  25  81 N5        30.25R WCI  25
MOREHEAD APT*  CLOUDY    28  21  74 CALM      30.27F
$$

KYZ035-036-041-042-044-050-067-078-099-181500
...CENTRAL KENTUCKY...

CITY           SKY/WX    TMP DP  RH WIND       PRES   REMARKS
MT STERLING*   CLOUDY    28  23  80 CALM      30.27S
FLEMING/MASON* CLOUDY    26  21  80 N5        30.28S WCI  21
DANVILLE*      PTSUNNY   28  27  93 E5        30.25F WCI  23
RICHMOND*      CLOUDY    28  23  80 CALM      30.25F
LEXINGTON      CLOUDY    29  22  75 E5        30.25F WCI  24
FRANKFORT      CLOUDY    28  21  75 E5        30.26S WCI  23
$$

KYZ091>093-OHZ055-061-077-WVZ005-015-034-035-042-181500
...SOUTHERN OHIO/WEST VIRGINIA...

CITY           SKY/WX    TMP DP  RH WIND       PRES   REMARKS
COVINGTON      CLOUDY    27  18  69 SW3       30.29R
COLUMBUS       CLOUDY    27  19  72 W5        30.25S WCI  22
DAYTON         CLOUDY    27  20  75 NW3       30.27R
WILMINGTON     CLOUDY    26  17  68 W3        30.25R
HUNTINGTON     CLOUDY    29  22  75 CALM      30.27R
CHARLESTON     CLOUDY    29  21  72 N5        30.25R WCI  24
PINEVILLE*     CLOUDY    32  27  83 MISG      30.24R
BECKLEY        CLOUDY    26  19  74 W3        30.14R
BLUEFIELD      PTSUNNY   27  21  78 NW5       30.13S WCI  22
$$

VAZ002-007-008-TNZ017-027-036-066-071-181500
...SOUTHWEST VIRGINIA/EAST TENNESSEE...

CITY           SKY/WX    TMP DP  RH WIND       PRES   REMARKS
WISE*          CLOUDY    30  27  86 SW5       30.16S WCI  25
JONESVILLE*    MOSUNNY   30  28  93 CALM      30.24S
ABINGDON*      CLOUDY    32  29  87 CALM      30.18R
BRISTOL        CLOUDY    30  29  96 CALM      30.21R
KNOXVILLE      PTSUNNY   35  30  82 N5        30.22S WCI  31
OAK RIDGE      CLOUDY    35  29  78 CALM      30.24S
CROSSVILLE     MOSUNNY   33  29  85 NE8       30.16F FOG     WCI  26
NASHVILLE      CLOUDY    34  31  88 N3        30.25S FOG
$$

...KEY TO REMARKS...
VSB - VISIBILITY IN MILES
WCI - WIND CHILL INDEX
HX  - HEAT INDEX

$$



USA.gov is the U.S. government's official web portal to all federal, state and local government web resources and services.